Time,TemperatureF,DewpointF,PressureIn,WindDirection,WindDirectionDegrees,WindSpeedMPH,WindSpeedGustMPH,Humidity,HourlyPrecipIn,Conditions,Clouds,dailyrainin,SoftwareType,DateUTC
2013-04-02 00:09:00,49.4,47.0,30.06,South,173,2.0,-999.0,90,-99.99,,,0.00,weatherlink.com 1.10,2013-04-02 07:09:00,
2013-04-02 00:24:00,49.5,47.0,30.06,South,184,3.0,-999.0,90,-99.99,,,0.00,weatherlink.com 1.10,2013-04-02 07:24:00,
2013-04-02 00:39:00,49.7,47.0,30.06,South,175,3.0,-999.0,89,-99.99,,,0.00,weatherlink.com 1.10,2013-04-02 07:39:00,
2013-04-02 00:54:00,49.7,47.0,30.07,South,184,2.0,-999.0,89,-99.99,,,0.00,weatherlink.com 1.10,2013-04-02 07:54:00,
2013-04-02 01:09:00,49.4,47.0,30.07,SSW,199,0.0,-999.0,90,-99.99,,,0.00,weatherlink.com 1.10,2013-04-02 08:09:00,
2013-04-02 01:24:00,49.3,46.0,30.08,SSW,194,9.0,-999.0,89,-99.99,,,0.00,weatherlink.com 1.10,2013-04-02 08:24:00,
2013-04-02 01:39:00,49.5,46.0,30.08,South,188,0.0,-999.0,88,-99.99,,,0.00,weatherlink.com 1.10,2013-04-02 08:39:00,
2013-04-02 01:54:00,49.4,46.0,30.08,South,189,1.0,-999.0,88,-99.99,,,0.00,weatherlink.com 1.10,2013-04-02 08:54:00,
2013-04-02 02:09:00,49.3,46.0,30.08,South,190,1.0,-999.0,89,-99.99,,,0.00,weatherlink.com 1.10,2013-04-02 09:09:00,
2013-04-02 02:24:00,49.3,46.0,30.09,South,187,4.0,-999.0,88,-99.99,,,0.00,weatherlink.com 1.10,2013-04-02 09:24:00,
2013-04-02 02:39:00,49.3,46.0,30.08,SSW,194,7.0,-999.0,88,-99.99,,,0.00,weatherlink.com 1.10,2013-04-02 09:39:00,
2013-04-02 02:54:00,49.4,45.0,30.08,SSW,213,3.0,-999.0,86,-99.99,,,0.00,weatherlink.com 1.10,2013-04-02 09:54:00,
2013-04-02 03:09:00,49.3,46.0,30.08,SSW,194,3.0,-999.0,87,-99.99,,,0.00,weatherlink.com 1.10,2013-04-02 10:09:00,
2013-04-02 03:24:00,49.3,46.0,30.08,South,188,2.0,-999.0,88,-99.99,,,0.00,weatherlink.com 1.10,2013-04-02 10:24:00,
2013-04-02 03:39:00,49.4,46.0,30.08,South,186,0.0,-999.0,88,-99.99,,,0.00,weatherlink.com 1.10,2013-04-02 10:39:00,
2013-04-02 03:54:00,49.4,46.0,30.08,South,186,0.0,-999.0,88,-99.99,,,0.00,weatherlink.com 1.10,2013-04-02 10:54:00,
2013-04-02 04:09:00,49.4,46.0,30.08,South,189,0.0,-999.0,88,-99.99,,,0.00,weatherlink.com 1.10,2013-04-02 11:09:00,
2013-04-02 04:24:00,49.5,46.0,30.09,South,183,0.0,-999.0,88,-99.99,,,0.00,weatherlink.com 1.10,2013-04-02 11:24:00,
2013-04-02 04:39:00,49.4,46.0,30.09,SSW,192,2.0,-999.0,88,-99.99,,,0.00,weatherlink.com 1.10,2013-04-02 11:39:00,
2013-04-02 04:54:00,49.2,46.0,30.09,SSW,203,3.0,-999.0,89,-99.99,,,0.00,weatherlink.com 1.10,2013-04-02 11:54:00,
2013-04-02 05:09:00,49.1,46.0,30.08,SSW,196,3.0,-999.0,90,-99.99,,,0.00,weatherlink.com 1.10,2013-04-02 12:09:00,
2013-04-02 05:24:00,49.0,46.0,30.08,South,189,0.0,-999.0,90,-99.99,,,0.00,weatherlink.com 1.10,2013-04-02 12:24:00,
2013-04-02 05:39:00,48.9,46.0,30.08,South,182,0.0,-999.0,90,-99.99,,,0.00,weatherlink.com 1.10,2013-04-02 12:39:00,
2013-04-02 05:54:00,48.8,46.0,30.08,SSE,168,0.0,-999.0,90,-99.99,,,0.00,weatherlink.com 1.10,2013-04-02 12:54:00,
2013-04-02 06:09:00,48.8,46.0,30.08,SSE,149,0.0,-999.0,90,-99.99,,,0.00,weatherlink.com 1.10,2013-04-02 13:09:00,
2013-04-02 06:24:00,48.8,46.0,30.09,SE,144,6.0,-999.0,91,-99.99,,,0.00,weatherlink.com 1.10,2013-04-02 13:24:00,
2013-04-02 06:39:00,48.8,46.0,30.09,SSE,157,4.0,-999.0,90,-99.99,,,0.00,weatherlink.com 1.10,2013-04-02 13:39:00,
2013-04-02 06:54:00,48.8,46.0,30.09,South,171,2.0,-999.0,90,-99.99,,,0.00,weatherlink.com 1.10,2013-04-02 13:54:00,
2013-04-02 07:09:00,48.9,46.0,30.08,SE,146,0.0,-999.0,89,-99.99,,,0.00,weatherlink.com 1.10,2013-04-02 14:09:00,
2013-04-02 07:39:00,49.2,46.0,30.08,SSW,207,0.0,-999.0,88,-99.99,,,0.00,weatherlink.com 1.10,2013-04-02 14:39:00,
2013-04-02 07:54:00,49.4,46.0,30.08,South,179,0.0,-999.0,88,-99.99,,,0.00,weatherlink.com 1.10,2013-04-02 14:54:00,
2013-04-02 08:09:00,49.6,46.0,30.09,SSE,150,0.0,-999.0,87,-99.99,,,0.00,weatherlink.com 1.10,2013-04-02 15:09:00,
2013-04-02 08:24:00,49.6,46.0,30.09,South,173,5.0,-999.0,86,-99.99,,,0.00,weatherlink.com 1.10,2013-04-02 15:24:00,
2013-04-02 08:39:00,49.8,46.0,30.09,SSW,193,0.0,-999.0,87,-99.99,,,0.00,weatherlink.com 1.10,2013-04-02 15:39:00,
2013-04-02 08:55:00,50.1,46.0,30.09,South,190,0.0,-999.0,86,-99.99,,,0.00,weatherlink.com 1.10,2013-04-02 15:55:00,
2013-04-02 09:09:00,50.5,46.0,30.09,South,191,2.0,-999.0,85,-99.99,,,0.00,weatherlink.com 1.10,2013-04-02 16:09:00,
2013-04-02 09:24:00,51.3,46.0,30.09,South,188,3.0,-999.0,83,-99.99,,,0.00,weatherlink.com 1.10,2013-04-02 16:24:00,
2013-04-02 09:39:00,51.3,47.0,30.09,SSW,206,7.0,-999.0,84,-99.99,,,0.00,weatherlink.com 1.10,2013-04-02 16:39:00,
2013-04-02 10:09:00,51.0,46.0,30.09,SSW,192,0.0,-999.0,84,-99.99,,,0.00,weatherlink.com 1.10,2013-04-02 17:09:00,
2013-04-02 10:24:00,51.4,46.0,30.09,SSE,150,0.0,-999.0,83,-99.99,,,0.00,weatherlink.com 1.10,2013-04-02 17:24:00,
2013-04-02 10:39:00,52.1,47.0,30.09,ESE,120,4.0,-999.0,82,-99.99,,,0.00,weatherlink.com 1.10,2013-04-02 17:39:00,
2013-04-02 10:54:00,53.1,47.0,30.09,SSE,165,3.0,-999.0,81,-99.99,,,0.00,weatherlink.com 1.10,2013-04-02 17:54:00,
2013-04-02 11:09:00,53.1,47.0,30.09,South,177,2.0,-999.0,80,-99.99,,,0.00,weatherlink.com 1.10,2013-04-02 18:09:00,
2013-04-02 11:39:00,53.0,47.0,30.09,SE,146,1.0,-999.0,80,-99.99,,,0.00,weatherlink.com 1.10,2013-04-02 18:39:00,
2013-04-02 11:54:00,53.2,47.0,30.09,SSE,155,3.0,-999.0,80,-99.99,,,0.00,weatherlink.com 1.10,2013-04-02 18:54:00,
2013-04-02 12:09:00,53.0,47.0,30.09,South,191,0.0,-999.0,81,-99.99,,,0.00,weatherlink.com 1.10,2013-04-02 19:09:00,
2013-04-02 12:24:00,52.4,47.0,30.10,South,178,4.0,-999.0,82,-99.99,,,0.00,weatherlink.com 1.10,2013-04-02 19:24:00,
2013-04-02 12:39:00,52.6,47.0,30.09,South,189,0.0,-999.0,82,-99.99,,,0.00,weatherlink.com 1.10,2013-04-02 19:39:00,
2013-04-02 13:09:00,52.9,47.0,30.09,South,184,3.0,-999.0,81,-99.99,,,0.00,weatherlink.com 1.10,2013-04-02 20:09:00,
2013-04-02 13:24:00,53.1,47.0,30.09,South,186,2.0,-999.0,81,-99.99,,,0.00,weatherlink.com 1.10,2013-04-02 20:24:00,
2013-04-02 13:39:00,53.5,48.0,30.09,SE,146,0.0,-999.0,81,-99.99,,,0.00,weatherlink.com 1.10,2013-04-02 20:39:00,
2013-04-02 13:54:00,54.3,48.0,30.09,SSW,195,0.0,-999.0,79,-99.99,,,0.00,weatherlink.com 1.10,2013-04-02 20:54:00,
2013-04-02 14:09:00,54.5,48.0,30.09,South,188,2.0,-999.0,79,-99.99,,,0.00,weatherlink.com 1.10,2013-04-02 21:09:00,
2013-04-02 14:24:00,54.6,48.0,30.09,SSW,194,0.0,-999.0,78,-99.99,,,0.00,weatherlink.com 1.10,2013-04-02 21:24:00,
2013-04-02 14:39:00,55.4,49.0,30.09,South,179,0.0,-999.0,78,-99.99,,,0.00,weatherlink.com 1.10,2013-04-02 21:39:00,
2013-04-02 15:09:00,55.4,48.0,30.09,South,187,2.0,-999.0,77,-99.99,,,0.00,weatherlink.com 1.10,2013-04-02 22:09:00,
2013-04-02 15:24:00,56.0,49.0,30.08,SSE,167,1.0,-999.0,76,-99.99,,,0.00,weatherlink.com 1.10,2013-04-02 22:24:00,
2013-04-02 15:39:00,56.3,49.0,30.08,South,184,0.0,-999.0,77,-99.99,,,0.00,weatherlink.com 1.10,2013-04-02 22:39:00,
2013-04-02 15:54:00,55.9,48.0,30.08,South,173,2.0,-999.0,76,-99.99,,,0.00,weatherlink.com 1.10,2013-04-02 22:54:00,
2013-04-02 16:09:00,56.3,49.0,30.08,SSW,192,0.0,-999.0,77,-99.99,,,0.00,weatherlink.com 1.10,2013-04-02 23:09:00,
2013-04-02 16:24:00,55.8,49.0,30.07,SSE,159,4.0,-999.0,78,-99.99,,,0.00,weatherlink.com 1.10,2013-04-02 23:24:00,
2013-04-02 16:39:00,55.9,49.0,30.07,South,184,2.0,-999.0,78,-99.99,,,0.00,weatherlink.com 1.10,2013-04-02 23:39:00,
2013-04-02 16:54:00,55.7,49.0,30.07,SE,138,3.0,-999.0,78,-99.99,,,0.00,weatherlink.com 1.10,2013-04-02 23:54:00,
2013-04-02 17:09:00,56.0,49.0,30.07,South,182,2.0,-999.0,78,-99.99,,,0.00,weatherlink.com 1.10,2013-04-03 00:09:00,
2013-04-02 17:24:00,56.4,49.0,30.06,South,172,3.0,-999.0,77,-99.99,,,0.00,weatherlink.com 1.10,2013-04-03 00:24:00,
2013-04-02 17:39:00,55.6,49.0,30.06,South,182,0.0,-999.0,78,-99.99,,,0.00,weatherlink.com 1.10,2013-04-03 00:39:00,
2013-04-02 17:54:00,55.6,49.0,30.06,SSE,154,0.0,-999.0,78,-99.99,,,0.00,weatherlink.com 1.10,2013-04-03 00:54:00,
2013-04-02 18:09:00,55.4,49.0,30.06,South,173,1.0,-999.0,79,-99.99,,,0.00,weatherlink.com 1.10,2013-04-03 01:09:00,
2013-04-02 18:24:00,55.0,49.0,30.06,SSE,157,1.0,-999.0,80,-99.99,,,0.00,weatherlink.com 1.10,2013-04-03 01:24:00,
2013-04-02 18:39:00,54.9,49.0,30.05,SE,140,0.0,-999.0,80,-99.99,,,0.00,weatherlink.com 1.10,2013-04-03 01:39:00,
2013-04-02 18:54:00,55.0,49.0,30.05,South,180,0.0,-999.0,80,-99.99,,,0.00,weatherlink.com 1.10,2013-04-03 01:54:00,
2013-04-02 19:09:00,54.9,49.0,30.05,South,186,3.0,-999.0,80,-99.99,,,0.00,weatherlink.com 1.10,2013-04-03 02:09:00,
2013-04-02 19:24:00,54.5,48.0,30.05,South,186,0.0,-999.0,80,-99.99,,,0.00,weatherlink.com 1.10,2013-04-03 02:24:00,
2013-04-02 19:39:00,52.5,47.0,30.05,West,267,0.0,-999.0,82,-99.99,,,0.00,weatherlink.com 1.10,2013-04-03 02:39:00,
2013-04-02 19:54:00,51.1,46.0,30.05,West,271,0.0,-999.0,84,-99.99,,,0.00,weatherlink.com 1.10,2013-04-03 02:54:00,
2013-04-02 20:09:00,50.5,46.0,30.06,West,271,0.0,-999.0,85,-99.99,,,0.00,weatherlink.com 1.10,2013-04-03 03:09:00,
2013-04-02 20:24:00,50.1,46.0,30.06,WNW,289,4.0,-999.0,86,-99.99,,,0.00,weatherlink.com 1.10,2013-04-03 03:24:00,
2013-04-02 20:39:00,49.9,46.0,30.07,NW,306,0.0,-999.0,86,-99.99,,,0.00,weatherlink.com 1.10,2013-04-03 03:39:00,
2013-04-02 20:54:00,49.6,46.0,30.08,WNW,303,0.0,-999.0,86,-99.99,,,0.00,weatherlink.com 1.10,2013-04-03 03:54:00,
2013-04-02 21:09:00,49.5,46.0,30.08,NW,318,0.0,-999.0,86,-99.99,,,0.00,weatherlink.com 1.10,2013-04-03 04:09:00,
2013-04-02 21:24:00,49.5,46.0,30.08,NW,318,0.0,-999.0,86,-99.99,,,0.00,weatherlink.com 1.10,2013-04-03 04:24:00,
2013-04-02 21:39:00,49.4,46.0,30.08,NW,318,0.0,-999.0,87,-99.99,,,0.00,weatherlink.com 1.10,2013-04-03 04:39:00,
2013-04-02 21:54:00,49.4,46.0,30.08,NW,319,0.0,-999.0,87,-99.99,,,0.00,weatherlink.com 1.10,2013-04-03 04:54:00,
2013-04-02 22:09:00,49.2,46.0,30.08,NW,318,0.0,-999.0,87,-99.99,,,0.00,weatherlink.com 1.10,2013-04-03 05:09:00,
2013-04-02 22:24:00,49.3,46.0,30.08,NW,318,0.0,-999.0,88,-99.99,,,0.00,weatherlink.com 1.10,2013-04-03 05:24:00,
2013-04-02 22:39:00,49.4,46.0,30.08,NW,318,0.0,-999.0,88,-99.99,,,0.00,weatherlink.com 1.10,2013-04-03 05:39:00,
2013-04-02 22:54:00,49.0,46.0,30.09,WNW,303,0.0,-999.0,88,-99.99,,,0.00,weatherlink.com 1.10,2013-04-03 05:54:00,
2013-04-02 23:09:00,48.5,46.0,30.09,WNW,300,1.0,-999.0,89,-99.99,,,0.00,weatherlink.com 1.10,2013-04-03 06:09:00,
2013-04-02 23:24:00,48.4,45.0,30.08,WNW,300,3.0,-999.0,89,-99.99,,,0.00,weatherlink.com 1.10,2013-04-03 06:24:00,
2013-04-02 23:39:00,48.3,45.0,30.08,WNW,300,1.0,-999.0,89,-99.99,,,0.00,weatherlink.com 1.10,2013-04-03 06:39:00,
2013-04-02 23:54:00,47.9,45.0,30.08,WNW,302,2.0,-999.0,89,-99.99,,,0.00,weatherlink.com 1.10,2013-04-03 06:54:00,